Find Starlink 32550

NORAD ID: 62131 Int'l Des: 2024-222 Owner: SPXS Country: US Constellation: starlink operational
LEOCIRCULAR

Live Position

Loading 3D Globe...

About Starlink 32550

Description loading...

Upcoming Passes

Passes for default location (London). Set your location on the main map for personalized predictions.

Altitude History

Loading altitude history...

Two-Line Element Set

1 62131U 24222T 26109.86688292 .00026511 00000-0 96902-3 0 9996
2 62131 43.0032 263.8781 0001440 260.9906 99.0783 15.27595077 79092
Epoch: Apr 19, 2026 • Age: 7 hours

Current Status

Altitude 490.7 km
Velocity 7.62 km/s
Sub-Earth Point -31.43°S, 146.66°W
Launch Date Nov 27, 2024
Age 1.3 years
Type internet

Technical Details

Classification Payload
Mass 730.00 kg
Dry Mass 700.00 kg
Total Mass 730.00 kg
Length 0.30 m
Diameter 4.10 m
Span 29.00 m
Shape Box + pan
Manufacturer SPXS
Bus Type Starlink V2M
Phase Status In Orbit
Owner/State SPXS/US

Most Searched